KITSUNE

Last updated on Tue Mar 14 2023 00:02:07 GMT+0000 (Coordinated Universal Time)

1 52148U 98067TK 23072.47569649 .03465794 12101-4 75344-3 0 9997 2 52148 51.6028 45.1069 0002410 226.4228 231.0120 16.29790218 55444

Satellite not in orbit

KITSUNE